Terminal Aerodrome Forecast
Issued by NWS Cleveland, OH

Home | Current Version | Previous Version | Graphics & Text | Print | Product List | Glossary On
Versions: 1 2 3 4 5 6 7 8 9 10 11 12 13 14 15 16 17 18 19 20 21 22 23 24 25 26 27 28 29 30
000
FTUS41 KCLE 160300 AAA
TAFCLE
TAF AMD
KCLE 160304Z 1603/1706 07005KT P6SM BKN200
     FM161400 16012G20KT 6SM -SHRA BKN040 OVC100
     FM162100 18015KT P6SM OVC025
      TEMPO 1621/1701 6SM -SHRA=

USA.gov is the U.S. government's official web portal to all federal, state and local government web resources and services.